W4FXD Weather Reports


time (UTC)temp
F
wind
direction
speed
knots
gust
knots
rain 1hr
in
rain 24hr
in
rain mn
in
humidity
%
barometer
mb
20260504015843 57 66 0.0 0.0 0.00 0.00 0.00 58 1016.3
20260504015340 57 74 0.0 0.0 0.00 0.00 0.00 57 1016.4
20260504014836 57 64 0.0 0.9 0.00 0.00 0.00 57 1016.5
20260504014332 57 79 0.0 0.0 0.00 0.00 0.00 57 1016.6
20260504013830 57 84 0.0 0.9 0.00 0.00 0.00 57 1016.4
20260504013328 57 79 0.0 0.9 0.00 0.00 0.00 57 1016.4
20260504012824 57 84 0.0 0.0 0.00 0.00 0.00 56 1016.2
20260504012322 57 66 0.0 0.0 0.00 0.00 0.00 56 1016.4
20260504011819 57 89 0.0 0.0 0.00 0.00 0.00 57 1016.2
20260504011316 57 90 0.0 0.0 0.00 0.00 0.00 55 1016.4
20260504010811 58 89 0.0 0.0 0.00 0.00 0.00 55 1016.5
20260504010307 58 87 0.0 0.0 0.00 0.00 0.00 54 1016.5
20260504005804 58 93 0.0 0.0 0.00 0.00 0.00 54 1016.8
20260504005301 58 73 0.0 0.9 0.00 0.00 0.00 55 1016.7
20260504004759 58 80 0.0 0.0 0.00 0.00 0.00 55 1016.5
20260504004256 58 70 0.0 0.0 0.00 0.00 0.00 55 1016.5
20260504003752 58 88 0.0 0.0 0.00 0.00 0.00 55 1016.4
20260504003249 59 90 0.0 0.0 0.00 0.00 0.00 54 1016.3
20260504002746 59 77 0.0 0.0 0.00 0.00 0.00 53 1016.5
20260504002242 59 78 0.0 0.0 0.00 0.00 0.00 53 1016.4
20260504001741 60 87 0.0 0.0 0.00 0.00 0.00 52 1016.3
20260504001237 60 90 0.0 0.0 0.00 0.00 0.00 52 1016.5
20260504000734 60 92 0.0 0.0 0.00 0.00 0.00 51 1016.4
20260504000231 61 88 0.0 0.9 0.00 0.00 0.00 50 1016.3
20260503235729 61 103 0.0 0.0 0.00 0.00 0.00 50 1016.3
20260503235226 61 95 0.9 0.9 0.00 0.00 0.00 50 1016.4
20260503234724 62 357 0.0 0.9 0.00 0.00 0.00 49 1016.5
20260503234222 62 209 0.0 0.0 0.00 0.00 0.00 48 1016.3
20260503233718 62 209 0.0 0.0 0.00 0.00 0.00 49 1016.7
20260503233214 62 209 0.0 0.0 0.00 0.00 0.00 48 1016.5
20260503232711 62 209 0.0 0.0 0.00 0.00 0.00 47 1016.6
20260503232208 63 209 0.0 0.0 0.00 0.00 0.00 46 1016.5
20260503231707 63 209 0.9 1.7 0.00 0.00 0.00 45 1017.1
20260503231203 63 224 0.9 0.9 0.00 0.00 0.00 46 1017.0
20260503230659 63 24 0.9 0.9 0.00 0.00 0.00 45 1016.7
20260503230156 63 109 1.7 1.7 0.00 0.00 0.00 45 1017.0
20260503225654 64 212 0.9 0.9 0.00 0.00 0.00 45 1016.8
20260503225154 64 152 0.0 0.9 0.00 0.00 0.00 43 1017.1
20260503224651 64 167 0.9 1.7 0.00 0.00 0.00 44 1017.0
20260503224149 64 195 0.9 1.7 0.00 0.00 0.00 45 1016.9
20260503223647 64 143 0.9 0.9 0.00 0.00 0.00 45 1016.8
20260503223143 64 178 0.9 1.7 0.00 0.00 0.00 44 1017.3
20260503222640 64 169 0.9 0.9 0.00 0.00 0.00 44 1017.1
20260503222138 64 267 1.7 1.7 0.00 0.00 0.00 45 1017.1
20260503221636 64 164 1.7 1.7 0.00 0.00 0.00 45 1017.1
20260503221133 64 166 1.7 1.7 0.00 0.00 0.00 46 1017.3
20260503220630 64 167 0.9 0.9 0.00 0.00 0.00 45 1017.5
20260503220127 64 197 0.9 1.7 0.00 0.00 0.00 44 1017.2
20260503215624 64 254 1.7 2.6 0.00 0.00 0.00 44 1017.4
20260503215120 64 165 0.9 0.9 0.00 0.00 0.00 45 1017.5
20260503214619 64 272 0.9 0.9 0.00 0.00 0.00 44 1017.5
20260503214115 63 256 2.6 2.6 0.00 0.00 0.00 45 1017.5
20260503213614 63 143 1.7 1.7 0.00 0.00 0.00 45 1017.5
20260503213110 63 179 0.9 1.7 0.00 0.00 0.00 45 1017.8
20260503212608 64 107 0.9 0.9 0.00 0.00 0.00 45 1017.6
20260503212105 63 175 1.7 1.7 0.00 0.00 0.00 46 1017.9
20260503211602 63 93 0.9 1.7 0.00 0.00 0.00 45 1018.0
20260503211057 63 134 0.9 0.9 0.00 0.00 0.00 44 1018.0
20260503210555 63 154 1.7 1.7 0.00 0.00 0.00 43 1018.0
20260503210050 63 4 0.9 1.7 0.00 0.00 0.00 41 1017.9
20260503205547 63 119 0.0 0.0 0.00 0.00 0.00 42 1018.2
20260503205043 62 85 0.0 0.9 0.00 0.00 0.00 42 1018.1
20260503204541 62 186 1.7 1.7 0.00 0.00 0.00 41 1018.5
20260503204037 62 116 0.0 0.9 0.00 0.00 0.00 41 1018.3
20260503203535 62 167 4.3 4.3 0.00 0.00 0.00 41 1018.4
20260503203032 62 167 0.9 0.9 0.00 0.00 0.00 41 1018.8
20260503202530 62 190 2.6 2.6 0.00 0.00 0.00 39 1018.6
20260503202027 62 125 1.7 1.7 0.00 0.00 0.00 42 1018.6
20260503201526 63 123 2.6 4.3 0.00 0.00 0.00 40 1018.9
20260503201022 62 173 1.7 1.7 0.00 0.00 0.00 41 1018.9
20260503200518 62 112 0.9 0.9 0.00 0.00 0.00 42 1019.0
20260503200015 62 158 2.6 2.6 0.00 0.00 0.00 41 1019.1
20260503195513 61 181 1.7 1.7 0.00 0.00 0.00 42 1019.1
20260503195009 61 129 0.0 0.9 0.00 0.00 0.00 41 1019.2
20260503194507 62 164 0.9 0.9 0.00 0.00 0.00 41 1019.3
20260503194006 62 96 1.7 1.7 0.00 0.00 0.00 43 1019.4
20260503193502 62 144 0.0 0.9 0.00 0.00 0.00 42 1019.4
20260503192958 61 195 0.9 0.9 0.00 0.00 0.00 42 1019.3
20260503192454 62 163 3.5 4.3 0.00 0.00 0.00 42 1019.4
20260503191950 61 89 0.9 0.9 0.00 0.00 0.00 43 1019.4
20260503191448 61 7 0.0 0.9 0.00 0.00 0.00 43 1019.6
20260503190943 61 174 1.7 1.7 0.00 0.00 0.00 43 1019.5
20260503190442 61 205 1.7 2.6 0.00 0.00 0.00 42 1019.5
20260503185938 61 140 0.9 1.7 0.00 0.00 0.00 42 1019.4
20260503185435 61 143 1.7 2.6 0.00 0.00 0.00 44 1019.6
20260503184934 61 105 0.9 0.9 0.00 0.00 0.00 44 1019.5
20260503184431 62 157 0.9 1.7 0.00 0.00 0.00 42 1019.8
20260503183927 62 147 1.7 1.7 0.00 0.00 0.00 44 1019.9
20260503183424 62 160 0.9 0.9 0.00 0.00 0.00 43 1019.9
20260503182921 62 151 1.7 2.6 0.00 0.00 0.00 42 1019.9
20260503182420 61 80 1.7 1.7 0.00 0.00 0.00 42 1019.7
20260503181917 60 170 1.7 2.6 0.00 0.00 0.00 42 1019.8
20260503181414 60 214 0.9 0.9 0.00 0.00 0.00 41 1020.0
20260503180910 60 162 1.7 1.7 0.00 0.00 0.00 41 1020.2
20260503180408 60 192 1.7 1.7 0.00 0.00 0.00 41 1020.3
20260503175904 60 183 0.9 1.7 0.00 0.00 0.00 44 1020.1
20260503175403 59 268 0.9 0.9 0.00 0.00 0.00 42 1020.4
20260503174858 60 155 3.5 4.3 0.00 0.00 0.00 41 1020.3
20260503174357 60 196 2.6 2.6 0.00 0.00 0.00 42 1020.5
20260503173857 60 177 1.7 1.7 0.00 0.00 0.00 40 1020.5
20260503173353 60 158 2.6 2.6 0.00 0.00 0.00 43 1020.7
20260503172850 60 168 0.9 0.9 0.00 0.00 0.00 43 1020.8
20260503172348 60 97 0.9 0.9 0.00 0.00 0.00 42 1020.4
20260503171844 60 12 0.9 0.9 0.00 0.00 0.00 43 1020.7
20260503171341 60 108 1.7 1.7 0.00 0.00 0.00 45 1020.8
20260503170838 60 41 1.7 1.7 0.00 0.00 0.00 42 1020.9
20260503170334 59 100 0.9 1.7 0.00 0.00 0.00 43 1021.0
20260503150727 57 34 0.9 0.9 0.00 0.00 0.00 48 1022.0
20260503150223 56 240 0.9 0.9 0.00 0.00 0.00 48 1021.9
20260503140147 54 58 2.6 2.6 0.00 0.00 0.00 51 1022.0
20260503131117 52 9 1.7 2.6 0.00 0.00 0.00 65 1022.1
20260503130614 51 112 0.9 0.9 0.00 0.00 0.00 66 1022.1
20260503130112 51 50 0.0 0.0 0.00 0.00 0.00 67 1022.2
20260503110505 41 54 0.0 0.0 0.00 0.00 0.00 90 1021.1
20260503090356 43 53 0.0 0.0 0.00 0.00 0.00 85 1020.0
20260503081323 44 46 0.0 0.0 0.00 0.00 0.00 84 1019.7
20260503080819 44 46 0.0 0.0 0.00 0.00 0.00 83 1019.6
20260503080317 45 46 0.0 0.0 0.00 0.00 0.00 82 1019.8
20260503072753 46 111 0.0 0.0 0.00 0.00 0.00 79 1019.1
20260503072250 46 111 0.0 0.0 0.00 0.00 0.00 78 1019.1
20260503071746 47 111 0.0 0.0 0.00 0.00 0.00 77 1019.0
20260503071244 47 108 0.0 0.0 0.00 0.00 0.00 75 1018.9
20260503070740 47 89 0.0 0.0 0.00 0.00 0.00 75 1019.0
20260503070238 47 6 0.9 1.7 0.00 0.00 0.00 74 1019.2
20260503060203 48 73 0.0 0.0 0.00 0.00 0.00 73 1018.8
20260503054650 49 101 0.0 0.9 0.00 0.00 0.00 71 1018.9
20260503054147 49 97 0.0 0.0 0.00 0.00 0.00 72 1018.8
20260503053645 49 101 0.0 0.0 0.00 0.00 0.00 72 1018.8
20260503053144 50 63 0.9 0.9 0.00 0.00 0.00 71 1018.9
20260503052639 50 65 0.0 0.9 0.00 0.00 0.00 70 1019.0
20260503052136 50 349 0.9 1.7 0.00 0.00 0.00 70 1018.6
20260503051631 50 78 0.0 0.0 0.00 0.00 0.00 70 1018.5
20260503051129 50 113 0.0 0.9 0.00 0.00 0.00 71 1018.6
20260503050626 50 110 0.0 0.0 0.00 0.00 0.00 69 1018.9
20260503050122 50 85 0.0 0.0 0.00 0.00 0.00 69 1018.8
20260503045620 50 55 0.0 0.0 0.00 0.00 0.00 71 1018.5
20260503045117 49 112 0.0 0.0 0.00 0.00 0.00 73 1018.8
20260503044613 49 126 0.0 0.0 0.00 0.00 0.00 73 1018.9
20260503044111 50 126 0.0 0.0 0.00 0.00 0.00 73 1018.8
20260503043607 50 125 0.0 0.0 0.00 0.00 0.00 72 1018.6
20260503043104 50 113 0.0 0.0 0.00 0.00 0.00 72 1018.8
20260503042601 50 93 0.0 0.0 0.00 0.00 0.00 70 1018.5
20260503042057 50 78 0.0 0.0 0.00 0.00 0.00 69 1018.5
20260503041554 50 57 0.0 0.0 0.00 0.00 0.00 68 1018.5
20260503041052 50 41 0.0 0.0 0.00 0.00 0.00 68 1018.5
20260503040549 51 16 0.9 0.9 0.00 0.00 0.00 67 1018.5
20260503040046 51 85 0.0 0.0 0.00 0.00 0.00 67 1018.4
20260503035542 51 97 0.0 0.0 0.00 0.00 0.00 67 1018.6
20260503035040 51 51 0.0 0.0 0.00 0.00 0.00 66 1018.5
20260503034537 51 51 0.9 0.9 0.00 0.00 0.00 66 1018.8
20260503034034 51 32 0.0 0.9 0.00 0.00 0.00 66 1018.6
20260503033532 51 57 1.7 1.7 0.00 0.00 0.00 66 1018.5
20260503033029 52 74 0.9 0.9 0.00 0.00 0.00 65 1018.6
20260503032528 52 118 0.0 0.9 0.00 0.00 0.00 66 1018.5
20260503032025 52 38 0.0 0.9 0.00 0.00 0.00 65 1018.6
20260503031523 52 24 0.9 0.9 0.00 0.00 0.00 65 1018.4
20260503031020 52 28 1.7 2.6 0.00 0.00 0.00 64 1018.8
20260503030516 52 17 1.7 2.6 0.00 0.00 0.00 64 1018.3
20260503030013 52 6 0.9 0.9 0.00 0.00 0.00 63 1018.4
20260503025509 52 48 0.9 0.9 0.00 0.00 0.00 64 1018.3
20260503025008 53 50 2.6 2.6 0.00 0.00 0.00 63 1018.1
20260503024503 52 88 0.0 0.9 0.00 0.00 0.00 63 1018.1
20260503024001 52 19 1.7 1.7 0.00 0.00 0.00 64 1018.2
20260503023457 52 108 0.0 0.9 0.00 0.00 0.00 63 1018.3
20260503022954 52 19 0.9 0.9 0.00 0.00 0.00 64 1018.0
20260503022450 53 84 0.9 0.9 0.00 0.00 0.00 63 1017.9
20260503021945 53 103 0.0 0.0 0.00 0.00 0.00 63 1018.0
20260503021442 53 120 1.7 1.7 0.00 0.00 0.00 63 1017.7
20260503020940 53 99 0.0 0.0 0.00 0.00 0.00 63 1017.8
20260503020437 53 92 0.0 0.0 0.00 0.00 0.00 64 1017.7